Regional Weather Roundup
Issued by NWS Bismarck, ND

Home | Current Version | Previous Version | Text Only | Print | Product List | Glossary On
Versions: 1 2 3 4 5 6 7 8 9 10 11 12 13 14 15 16 17 18 19 20 21 22 23 24 25 26 27 28 29 30 31 32 33 34 35 36 37 38 39 40 41 42 43 44 45 46 47 48 49 50
000
ASUS43 KBIS 010020
RWRBIS

NWR BROADCAST TEXT
NATIONAL WEATHER SERVICE BISMARCK ND
700 PM CDT THU JUL 31 2014

NOTE: "FAIR" INDICATES FEW OR NO CLOUDS BELOW 12,000 FEET WITH NO
SIGNIFICANT WEATHER AND/OR OBSTRUCTIONS TO VISIBILITY.


CITY           SKY/WX    TMP DP  RH WIND       PRES   REMARKS
WILLISTON      SUNNY     87  56  34 E15       29.99F
MINOT          SUNNY     81  53  37 VRB3      30.03F
MINOT AFB      MOSUNNY   80  56  43 S5        30.03F
BISMARCK       SUNNY     85  49  28 SE7       30.03F
DICKINSON      SUNNY     84  58  40 E8        30.03F
GARRISON         N/A     81  57  43 E5        30.04F
HETTINGER ARPT SUNNY     86  52  30 NE8       30.06F
JAMESTOWN      SUNNY     80  58  46 NE3       30.03F
CARRINGTON     FAIR      77  59  53 N5        30.05S
CROSBY         FAIR      81  63  54 E10       30.03R
HARVEY         FAIR      81  59  47 CALM      30.04F
HAZEN          FAIR      82  55  39 E6        30.03F
LINTON         FAIR      82  55  39 NE3       30.03F
MANDAN         FAIR      81  57  44 SW5       30.05F
RUGBY          FAIR      77  63  61 NE3       30.03S
STANLEY        FAIR      77  57  50 SE12      30.05S
TIOGA          FAIR      81  59  47 E10       30.06F
WATFORD CITY   FAIR      84  57  39 E13       29.98F
$$

CITY           SKY/WX    TMP DP  RH WIND       PRES   REMARKS
GRAND FORKS    MOSUNNY   82  62  50 N5        29.98F
GRAND FORKS AF MOSUNNY   80  61  53 NE3       30.00F
DEVILS LAKE    SUNNY     79  57  47 N6        30.02S
FARGO          SUNNY     82  59  45 NE6       29.99F
CANDO          FAIR      81  57  44 N5        30.04S
CAVALIER       FAIR      81  63  54 N7        30.00S
GRAFTON        FAIR      81  61  50 N6        29.99S
GWINNER        CLEAR     81  59  47 NW6       30.04S
LANGDON        FAIR      77  59  53 N7        30.04S
ROLLA            N/A     77  57  50 N7        30.06F
WALHALLA       FAIR      77  64  65 N7          N/A
$$

CITY           SKY/WX    TMP DP  RH WIND       PRES   REMARKS
ABERDEEN       SUNNY     78  55  44 E7        30.03F
MOBRIDGE       SUNNY     84  52  33 NE7       30.01F
BUFFALO          N/A     84  43  23 SW13      30.02F
RAPID CITY     PTSUNNY   83  53  35 SW10      30.10F
GLASGOW        MOSUNNY   95  39  14 E7        29.95S HX  91
SIDNEY         SUNNY     93  54  26 NE10      29.97S HX  91
WOLF POINT     PTSUNNY   96  33  11 W6        29.94S HX  91
GLENDIVE       SUNNY     93  39  15 SW9       29.99S
MILES CITY     SUNNY     94  29  10 SW6       29.98F
BAKER          SUNNY     92  36  14 NE3       30.05F
$$

CITY           SKY/WX    TMP DP  RH WIND       PRES   REMARKS
BILLINGS       PTSUNNY   88  41  19 CALM      30.07S
GREAT FALLS    PTSUNNY   87  34  15 CALM      30.11F
REGINA         SUNNY     82  61  47 SE10      30.02F
ESTEVAN        MOSUNNY   81  63  54 E8        30.04F
$$



USA.gov is the U.S. government's official web portal to all federal, state and local government web resources and services.